www.pogodaiklimat.ru

Погода и климат >> Архив погоды >> Коста-Рика >> Сан-Хосе


АРХИВ ПОГОДЫ в Сан-Хосе

Время (UTC), дата Ветер
(напр.,м/с)
 
Видим.   Явления Облачность Т
(С)
Тd
(С)
f
(%)
Тe
(С)
Тes
(С)
Комфортность P
(гПа)
Po
(гПа)
Тmin
(С)
Tmax
(С)
R
(мм)
R24
(мм)
S
(см)
00 11.06 В 5 20 км 10/5 150 м
[Sc Cs]
+23.4 +20.0 81 +30 +30 очень
душно
1011.3 912.9 +18.8 +29.3 23
03 11.06 СВ 4 20 км 6/0
[Ci fib]
+21.7 +19.4 87 +27 +27 душно 1011.4 913.4
06 11.06 В 3 20 км 4/0
[Ci sp]
+20.6 +19.1 91 +25 +25 комфорт 1011.5 913.5 +20.3 +20.8
09 11.06 СВ 6 20 км ясно +20.7 +18.1 85 +24 +24 комфорт 1010.8 912.3
12 11.06 С 4 20 км 5/1 1050 м
[Sc Ac As]
+19.7 +17.7 88 +22 +22 комфорт 1008.0 909.7 +19.0 +21.8
15 11.06 нст 2 20 км 9/0
[Ac inh]
+25.2 +19.2 69 +30 +35 душно 1012.6 914.4
18 11.06 В 6 20 км 9/9 1350 м
[Sc diur, vesp As trans]
+28.2 +18.9 57 +33 +34 очень
душно
1009.9 912.3 +19.0 +28.4
21 11.06 З 8 10 км 9/5 180 м
[Frnb Ac As]
+21.5 +20.5 94 +27 +27 душно 1010.4 911.7
00 12.06 В 9 20 км 4/0
[Ac As]
+23.7 +17.4 68 +28 +28 душно 1010.4 911.9 +19.0 +28.3
03 12.06 В 8 20 км 4/0
[Ac As]
+23.1 +17.4 70 +28 +28 душно 1011.0 913.2
06 12.06 штиль 0 20 км 8/8 150 м
[Frnb]
+20.3 +19.5 95 +24 +24 комфорт 1010.8 913.0 +20.0 +28.4
09 12.06 СВ 5 20 км 6/0
[Ac trans]
+20.0 +17.8 87 +23 +23 комфорт 1010.8 911.9
12 12.06 В 5 20 км 10/0
[Ac trans Ci ing]
+20.9 +17.4 80 +25 +25 комфорт 1011.1 912.7 +19.6 +28.4
15 12.06 З 4 20 км 8/1 1200 м
[Sc diur, vesp Ac As]
+23.3 +19.9 81 +30 +34 очень
душно
1013.7 915.3
18 12.06 З 10 20 км 9/4 900 м
[Sc Ac As]
+25.9 +21.8 78 +33 +33 очень
душно
1012.3 914.0 +19.6 +27.2
21 12.06 ЮВ 3 15 км 10/5 300 м
[Sc Ac As]
+22.4 +21.1 92 +29 +30 очень
душно
1012.4 913.5
00 13.06 СВ 5 20 км слаб. дождь 10/3 1200 м
[Sc Ac As]
+21.9 +20.4 91 +28 +28 душно 1012.4 913.6 +19.6 +27.2 3
03 13.06 ЮВ 3 20 км 9/0
[Ac As]
+22.1 +18.9 82 +27 +27 душно 1013.0 914.5
06 13.06 В 3 20 км 9/0
[As trans]
+20.4 +18.9 91 +25 +25 комфорт 1011.5 913.3 +19.2 +28.4
09 13.06 СВ 5 20 км ясно +19.5 +18.4 93 +22 +22 комфорт 1011.6 912.7
12 13.06 СВ 8 20 км 8/0
[Ac inh Cc]
+20.5 +17.5 83 +24 +24 комфорт 1012.4 913.5 +19.0 +27.3
15 13.06 ЮЗ 9 20 км 9/1 1200 м
[Cu med, cong Ac cuf]
+24.2 +19.6 76 +29 +30 душно 1013.1 914.8
18 13.06 З 6 20 км 9/4 900 м
[Sc Ac As]
+25.5 +21.0 76 +32 +34 очень
душно
1012.5 914.2 +19.0 +25.8
21 13.06 Ю 6 5000 м в посл. час гроза 10/10 90 м
[St]
+21.2 +20.7 97 +26 +26 душно 1012.8 913.6
00 14.06 нст 2 9000 м туман местами 10/3 60 м
[St As op]
+20.6 +20.1 97 +26 +26 душно 1012.9 913.8 +19.0 +25.8
03 14.06 нст 2 8000 м туман местами 5/1 30 м
[St]
+20.2 +19.9 98 +25 +25 комфорт 1013.7 915.0
06 14.06 СВ 6 20 км ясно +20.4 +18.6 89 +24 +24 комфорт 1012.9 914.5 +20.1 +20.8
09 14.06 С 4 20 км 1/1 1350 м
[St]
+19.1 +17.8 92 +21 +21 комфорт 1012.2 913.0
12 14.06 СВ 5 20 км 4/4 1350 м
[Sc]
+22.0 +18.6 81 +27 +27 душно 1012.9 914.0 +18.6 +22.4
15 14.06 В 12 20 км 8/1 1050 м
[Sc Ac und]
+24.0 +19.0 74 +29 +29 душно 1012.7 914.1
18 14.06 В 11 20 км 8/1 1050 м
[Sc Ac lent]
+26.9 +18.4 60 +32 +32 очень
душно
1011.3 913.3 +18.6 +28.2
21 14.06 З 10 20 км 10/4 1050 м
[Sc Ac und]
+25.9 +22.1 80 +34 +34 очень
душно
1010.4 912.1
00 15.06 СЗ 5 20 км 9/4 1050 м
[Sc Ci fib]
+22.8 +21.1 90 +30 +30 очень
душно
1011.4 913.0 +18.6 +30.1
03 15.06 С 4 20 км ясно +22.1 +20.9 93 +29 +29 очень
душно
1012.5 914.2
06 15.06 СВ 5 20 км ясно +21.1 +19.2 89 +26 +26 душно 1011.7 913.8 +20.6 +30.1
09 15.06 В 7 20 км ясно +19.6 +17.8 89 +22 +22 комфорт 1010.5 912.3
12 15.06 СВ 6 20 км ясно +22.0 +17.9 78 +27 +27 душно 1011.5 913.1 +19.2 +30.1
15 15.06 В 13 20 км 1/1 1350 м
[Sc diur, vesp]
+26.9 +18.9 62 +32 +32 очень
душно
1012.3 914.5
18 15.06 В 10 20 км 8/4 1350 м
[Sc Cs]
+29.6 +19.5 55 +36 +36 очень
душно
912.6 +18.6 +30.6
21 15.06 З 12 20 км 9/4 1200 м
[Sc As trans]
+25.6 +23.1 86 +34 +34 очень
душно
1009.0 910.9
00 16.06 З 5 20 км 9/9 750 м
[Sc diur, vesp]
+23.2 +22.0 93 +32 +32 очень
душно
1010.6 912.3 +19.2 +31.0 0.2
03 16.06 З 4 20 км местами туман поземный 9/9 180 м
[Frnb]
+22.5 +21.6 95 +30 +30 очень
душно
914.0
06 16.06 СВ 6 20 км 1/1 750 м
[St]
+22.1 +19.5 85 +28 +28 душно 1010.2 913.0 +21.1 +22.1
09 16.06 СВ 6 20 км ясно +21.3 +18.0 81 +25 +25 комфорт 1009.2 911.3
12 16.06 СВ 6 20 км 1/1 900 м
[Sc]
+20.8 +17.5 81 +24 +25 комфорт 1010.7 912.2 +19.6 +22.9
15 16.06 В 11 20 км 6/1 1350 м
[Sc Cs]
+27.2 +18.1 58 +32 +32 очень
душно
1010.3 912.8
18 16.06 В 11 20 км 4/1 1500 м
[Sc Cs]
+29.4 +17.5 49 +34 +34 очень
душно
1008.9 911.8 +19.6 +31.0
21 16.06 ЮЗ 11 20 км 3/3 1200 м
[Sc]
+26.6 +22.7 79 +35 +35 очень
душно
1007.9 910.3
00 17.06 ЮЗ 5 10 км 10/4 300 м
[Sc Ac As]
+23.4 +22.4 94 +32 +32 очень
душно
1009.4 911.1 +19.6 +31.1
03 17.06 нст 2 20 км 5/1 450 м
[Sc Ac As]
+21.5 +20.8 96 +27 +27 душно 1009.1 911.5
06 17.06 В 10 20 км ясно +22.8 +18.0 74 +28 +28 душно 1008.1 911.2 +22.5 +31.1
09 17.06 В 10 20 км ясно +22.9 +17.9 73 +28 +28 душно 1007.7 910.4
12 17.06 В 11 20 км 10/1 1350 м
[Sc Cs]
+22.4 +17.8 75 +27 +27 душно 1009.6 911.5 +22.1 +31.1
15 17.06 В 13 20 км 9/3 1350 м
[Sc Cs]
+26.2 +19.0 65 +31 +31 очень
душно
1010.5 912.6
18 17.06 В 13 20 км 10/4 1200 м
[Sc Ac As]
+27.9 +18.8 58 +33 +33 очень
душно
1008.8 911.6 +22.1 +29.1
21 17.06 В 12 20 км 10/3 1050 м
[Sc Ac As Cs]
+28.7 +18.4 54 +34 +34 очень
душно
1006.6 909.7

 

Местоположение метеостанции Сан-Хосе (Коста-Рика): широта 9.98 долгота -84.21 высота над уровнем моря 934 м.

В архиве по умолчанию представлена погода в Сан-Хосе за последнюю неделю. Архивные данные за месяц целиком и за предыдущие месяцы, начиная с января 2011 года, Вы можете получить, выбрав интересующий диапазон дат из раскрывающегося списка и нажав кнопку "Ввод!".


*Определитесь, кто Вы:
робот инопланетянин человек

Внимание! Время в таблицах - всемирное. Для получения местного времени необходимо прибавить поправку, которая равна -6 ч.

Смотрите также архив погоды в соседних городах и на ближайших метеорологических станциях:

Погода в Сан-Хосе аэропорту (Коста-Рика) (8 км)
Погода в Пуэрто-Лимоне (Коста-Рика) (127 км)
Погода в Либерии (Коста-Рика) (151 км)
Погода в Блуфилдсе (Никарагуа) (230 км)
Погода в Ривасе (Никарагуа) (239 км)
Погода в Давиде (Панама) (264 км)
Погода в Хуигальпе (Никарагуа) (268 км)
Погода в Манагуа (Никарагуа) (323 км)
Погода в Хинотеге (Никарагуа) (395 км)
Погода на Острове Сан-Андрес (Колумбия) (397 км)

Пояснения к столбцам:

Ветер - указаны скорость ветра в м/с - средняя за 10 мин, порывы в срок и между сроками (в фигурных скобках) и направление, откуда дует ветер: С - северный, СВ - северо-восточный, В - восточный, ЮВ - юго-восточный, Ю - южный, ЮЗ - юго-западный, З - западный, СЗ - северо-западный.
Видимость - горизонтальная дальность видимости в метрах или километрах. При видимости от 1 до 10 км при отсутствии осадков обычно наблюдается дымка, при ухудшении видимости до 1 км и менее - туман. В сухую погоду видимость может ухудшаться дымом, пылью или мглою.
Явления - указаны атмосферные явления, наблюдавшиеся в срок или в последний час перед сроком; фигурными скобками обозначены явления, наблюдавшиеся между сроками (за 1-3 часа до срока); квадратными скобками обозначены град или гололедные отложения с указанием их диаметра в мм.
Облачность - указаны через наклонную черту общая и нижняя облачность в баллах и высота нижней границы облаков в метрах; квадратными скобками обозначены формы облаков: Ci - перистые, Cs - перисто-слоистые, Cc - перисто-кучевые, Ac - высококучевые, As - высокослоистые, Sc - слоисто-кучевые, Ns - слоисто-дождевые, Cu - кучевые, Cb - кучево-дождевые. Подробнее классификацию облаков см. в Атласе облаков (PDF).
T - Температура воздуха - температура, измеренная на высоте 2 м над землей.
Td - Температура точки росы - температура, при понижении до которой содержащийся в воздухе водяной пар достигнет насыщения.
f - Относительная влажность воздуха - влажноcть воздуха, измеренная на высоте 2 м над землей.
Te - Эффективная температура - температура, которую ощущает одетый по сезону человек в тени. Характеристика душности погоды. При расчете учитывается влияние влажности воздуха и скорости ветра на теплоощущения человека.
Tes - Эффективная температура на солнце - температура, которую ощущает человек, с поправкой на солнечный нагрев. Характеристика знойности погоды. Зависит от высоты солнца над горизонтом, облачности и скорости ветра. Ночью, в пасмурную погоду, а также при ветре 12 м/с и более поправка равна нулю.
P - Атмосферное давление - приведенное к уровню моря атмосферное давление.
Po - Атмосферное давление - измеренное на уровне метеостанции атмосферное давление.
Tmin - Минимальная температура - минимум температуры воздуха на высоте 2 м над землей.
Tmax - Максимальная температура - максимум температуры воздуха на высоте 2 м над землей.
R - Количество осадков - Количество выпавших осадков за период времени, мм. При наведении курсора мыши на число - период времени, за который выпало указанное количество осадков.
R24 - Количество осадков - Количество выпавших осадков за 24 часа, мм.
S - Снежный покров - Высота снежного покрова, см. При наведении курсора мыши на число - состояние снежного покрова и степень покрытия местности в баллах.